Theta_e
312 312 312 312 312 312 312 313 313 313 314 315 316 317 318 319 318 312 306 315 321 328 324 313 312 311 309 308 311 309 300 298 301 303 305 307 306 312 318 317 319 321 320 323 329
312 312 312 312 312 311 311 312 312 313 313 314 316 317 318 318 310 307 317 325 327 327 313 311 308 307 304 305 306 304 298 300 305 307 305 307 307 311 312 314 316 318 321 326 328
314 313 312 312 312 311 311 311 311 311 312 314 315 317 317 315 303 302 323 323 325 325 315 315 312 306 303 303 304 303 298 302 304 307 307 306 304 308 310 306 315 315 318 321 326
314 313 312 312 312 311 311 310 311 311 312 313 315 317 317 308 283 306 319 321 324 316 315 311 308 303 301 299 303 301 303 304 307 305 307 305 305 309 311 312 316 322 321 320 322
315 314 313 312 312 311 311 310 310 312 312 313 314 316 307 298 298 309 316 316 314 311 311 309 304 303 299 300 302 300 302 304 304 304 308 312 308 310 306 315 312 311 312 314 311
315 315 314 312 311 311 311 310 310 311 312 313 314 315 300 288 303 307 307 309 308 310 309 310 306 305 301 300 301 302 302 302 302 303 305 301 297 306 299 306 305 306 304 304 304
315 315 314 312 311 311 311 311 310 309 311 312 314 309 299 294 306 306 307 306 307 309 307 312 310 303 302 301 303 302 299 299 298 301 300 303 297 293 300 302 300 300 300 301 301
315 315 314 313 311 311 311 311 310 309 311 313 313 301 293 304 306 306 306 305 309 311 310 311 313 305 303 304 303 298 299 294 297 299 298 301 292 293 301 300 297 297 298 298 298
315 314 314 313 311 310 310 311 309 310 312 311 299 295 289 305 301 304 305 302 304 309 310 311 308 302 303 299 297 297 291 292 293 294 297 298 290 293 300 299 296 296 296 297 297
314 314 313 312 311 310 310 309 309 307 305 305 304 291 292 294 300 302 304 304 301 304 303 305 300 296 297 293 288 292 291 292 292 292 293 290 288 293 297 297 295 294 295 295 294
314 313 313 312 310 309 301 296 290 287 293 288 288 291 294 299 301 300 304 301 302 299 290 300 294 290 294 296 295 297 294 291 292 294 290 288 288 291 294 295 294 294 294 294 293
314 313 312 311 309 308 299 292 290 292 286 292 293 294 297 298 292 295 303 294 295 290 294 295 290 294 296 297 297 295 295 291 295 295 291 289 287 290 291 292 294 294 293 293 293
313 313 312 310 308 300 295 294 299 295 285 286 291 292 293 296 290 292 298 295 292 291 290 287 290 296 294 294 294 294 295 290 291 292 292 290 288 288 289 291 292 292 293 293 292
313 313 312 309 299 295 292 299 299 292 270 279 286 290 295 295 287 297 298 295 292 289 290 288 292 293 292 291 294 290 297 295 292 290 283 292 285 289 288 288 290 290 291 290 290
312 312 309 303 294 291 295 299 295 287 260 278 287 298 295 289 290 290 298 295 287 289 290 285 288 289 289 290 294 292 298 296 295 291 288 286 286 289 288 286 287 289 290 290 290
311 308 306 297 294 294 297 292 289 269 259 277 285 285 285 288 289 292 291 295 293 290 291 287 291 291 290 293 294 297 295 295 295 292 283 287 286 287 285 288 289 290 290 290 289
308 306 301 298 290 296 292 286 270 263 274 272 279 283 282 282 284 286 285 284 282 281 282 288 286 289 292 290 293 292 291 283 282 281 282 288 287 288 291 292 292 290 290 290 290
305 301 298 296 294 294 287 276 262 262 266 280 281 281 278 282 282 285 284 281 285 283 280 279 278 287 291 290 288 289 291 282 276 278 281 287 284 290 287 288 292 292 290 289 288
301 291 291 294 295 290 282 265 266 267 281 280 280 276 274 283 283 283 282 279 283 285 279 280 279 287 288 291 292 288 286 290 282 278 281 286 287 286 286 287 289 288 288 288 288
291 289 289 293 291 286 275 272 268 278 284 282 275 277 273 272 277 281 281 282 284 288 289 283 277 286 288 291 292 291 293 285 284 277 275 280 281 284 282 284 287 287 287 287 287
288 282 290 291 288 280 269 265 274 283 285 282 274 275 278 277 280 280 281 286 289 288 291 289 284 282 286 285 285 288 288 287 286 283 278 275 280 285 286 287 287 288 288 287 286
285 275 290 289 275 261 266 275 284 281 285 284 285 283 279 280 277 281 281 286 289 290 285 289 286 276 283 284 285 288 288 287 282 279 280 280 280 284 284 288 289 288 288 287 286
279 281 288 287 269 264 271 277 282 281 282 283 282 284 283 280 277 282 283 289 291 288 287 290 284 276 276 284 287 284 286 288 286 284 280 279 281 284 285 286 288 286 286 286 286
281 273 278 277 276 275 272 267 270 282 281 283 282 283 280 278 283 280 283 287 290 290 288 290 284 280 275 277 281 282 284 287 286 282 279 281 282 281 282 284 285 286 286 286 285
279 273 276 268 271 273 274 270 268 271 280 281 281 281 279 275 279 278 281 285 289 289 288 286 272 281 281 281 282 282 285 285 286 283 283 282 282 285 284 284 285 286 286 285 284
278 276 279 277 278 276 277 274 274 274 278 276 278 279 279 273 278 276 278 279 280 283 286 286 277 278 279 281 284 282 283 286 285 284 282 282 282 283 284 284 284 285 285 284 284
281 282 281 279 277 275 274 277 279 280 282 282 280 279 279 279 281 283 283 282 281 279 281 281 277 277 275 279 278 278 280 282 282 281 281 279 283 281 280 282 284 285 286 285 285
Wind_Speed
5 7 6 6 8 9 10 11 12 13 13 14 14 14 14 15 16 3 4 1 5 9 11 6 1 3 1 1 2 3 4 3 4 5 3 4 4 2 1 7 4 3 2 5 15
6 6 7 7 7 9 10 11 12 13 14 14 14 15 15 15 4 5 8 5 6 8 4 5 3 5 1 2 1 4 3 8 4 2 4 5 4 6 4 4 5 5 9 11 14
7 6 6 6 6 8 9 10 12 13 13 14 14 14 14 11 3 1 7 7 6 7 3 1 2 2 4 2 4 4 5 5 3 4 2 6 4 3 7 3 3 9 11 8 11
7 7 6 7 6 7 8 9 10 12 13 14 15 14 15 2 5 3 12 9 5 5 3 4 1 2 4 5 4 4 5 4 2 3 3 5 5 6 7 3 4 12 11 6 7
8 8 7 7 7 7 7 9 10 12 11 13 14 15 5 1 7 4 13 8 3 2 6 3 3 2 5 4 5 4 4 5 2 7 7 11 7 8 9 11 14 14 13 11 11
9 8 8 7 8 8 8 8 9 10 11 12 14 13 2 3 4 7 8 5 4 3 6 4 1 5 3 3 5 6 5 4 3 6 3 9 4 3 7 6 13 15 13 11 11
10 10 8 8 7 8 9 9 9 9 10 11 11 3 3 11 5 7 5 3 3 2 6 3 4 4 5 2 6 2 6 3 4 1 5 6 6 5 8 9 13 13 11 11 11
9 9 8 8 7 7 9 10 10 10 10 10 9 2 6 5 6 8 3 4 2 1 2 9 4 2 6 4 4 3 4 5 1 0 2 6 3 2 10 10 10 9 10 10 10
8 9 9 8 6 6 8 12 11 10 10 5 2 3 9 10 6 7 3 2 4 2 2 3 7 4 4 2 2 4 6 5 3 4 1 3 4 1 8 10 9 7 7 7 7
9 9 9 7 4 5 9 13 9 5 3 1 2 2 3 5 6 7 4 2 0 2 2 4 3 5 2 6 5 8 6 3 5 2 7 6 5 5 4 7 9 6 6 7 6
10 10 10 6 2 3 5 5 6 4 5 2 1 3 3 8 4 4 3 1 1 2 5 3 5 14 21 21 21 5 4 6 3 4 6 4 8 6 6 8 9 6 6 6 6
11 11 9 6 4 4 3 4 2 2 7 4 5 5 5 3 4 6 4 2 2 5 3 4 10 5 8 7 12 17 9 4 3 7 6 3 7 3 2 3 4 8 5 5 5
12 11 9 7 6 5 3 2 2 2 1 6 3 3 5 2 3 5 2 2 3 5 4 4 3 8 5 7 11 13 12 7 6 7 6 5 3 4 1 2 3 4 5 4 6
13 11 9 9 5 1 2 4 3 3 6 6 4 2 3 3 4 3 3 2 2 8 4 5 3 4 9 7 8 9 1 12 15 7 4 3 6 6 7 5 4 6 6 6 8
12 11 9 3 5 2 1 3 2 5 5 6 5 3 5 1 5 1 3 1 3 4 4 5 4 6 7 6 7 4 11 11 11 10 5 5 4 2 13 9 10 9 7 8 7
14 12 9 4 3 1 3 1 4 10 6 5 5 6 6 1 3 6 2 1 2 3 0 5 3 4 8 7 9 5 6 10 9 6 5 9 9 4 8 11 10 8 10 11 10
13 9 5 1 2 3 2 4 8 6 5 7 4 5 5 5 5 0 3 3 4 5 4 3 4 3 3 5 5 5 9 2 4 5 3 7 10 7 6 6 17 20 17 13 11
12 8 5 2 3 2 3 7 7 4 5 5 4 7 3 4 3 4 3 3 4 3 3 5 4 8 5 7 6 14 10 6 7 6 6 5 5 4 2 4 9 16 16 13 12
8 3 3 5 5 2 6 6 8 7 2 6 5 3 4 2 2 2 6 7 7 9 5 5 4 1 2 3 4 8 10 6 7 2 4 4 1 3 1 4 11 15 17 16 13
4 3 2 7 5 4 6 2 2 4 4 2 3 1 3 4 3 4 6 5 5 9 4 5 1 2 3 1 1 6 8 2 1 6 4 3 4 6 3 8 11 15 17 15 14
5 4 3 5 4 6 4 6 3 3 3 3 2 3 4 3 3 4 5 2 5 4 10 3 2 3 3 5 6 4 5 2 4 1 4 3 5 3 9 15 21 20 18 17 15
3 3 3 2 5 1 3 3 1 2 1 3 3 4 2 3 5 5 4 3 3 2 7 5 2 4 3 5 3 3 6 5 4 3 1 1 5 1 5 10 10 12 11 12 14
3 1 2 4 2 2 4 1 2 2 3 2 3 2 1 3 5 5 4 6 4 4 3 8 5 3 2 1 3 4 4 6 6 2 4 4 5 3 3 10 10 13 12 12 12
4 3 5 5 1 6 4 1 3 2 3 2 2 2 2 3 4 6 4 2 5 4 2 2 2 3 5 2 2 5 4 5 6 3 5 5 2 2 5 7 12 14 15 15 15
3 3 4 2 4 3 2 3 0 2 3 2 2 1 4 4 3 4 5 6 3 6 3 2 3 1 1 2 2 2 13 10 13 4 7 4 6 5 11 13 14 13 13 13 14
6 5 1 2 1 4 1 3 4 3 2 4 3 1 2 2 1 4 6 5 5 7 3 2 1 1 1 4 3 3 4 12 9 8 4 5 7 1 4 10 10 16 18 18 17
1 1 5 1 2 3 4 4 4 3 3 3 3 1 2 3 3 4 3 4 4 3 4 2 2 1 2 1 1 3 8 10 5 4 9 7 7 6 4 9 16 17 17 16 16
Wind_Direction
301 313 322 337 347 350 348 349 351 346 343 346 344 337 332 331 320 261 232 337 339 326 314 293 349 340 97 99 89 132 81 183 211 175 172 178 130 34 57 102 79 69 77 121 126
275 291 310 324 338 343 345 345 344 344 342 341 341 336 330 332 300 273 286 334 333 335 339 33 358 338 138 186 111 108 139 207 196 208 175 161 128 132 120 104 79 90 82 122 127
262 279 299 302 322 333 340 341 342 341 339 339 336 338 330 329 302 217 346 349 2 328 267 282 284 258 191 154 188 171 191 193 190 235 157 127 83 58 120 86 177 152 132 129 135
281 257 276 288 302 317 328 338 342 340 339 339 335 338 327 298 217 26 342 331 328 273 267 4 338 217 167 181 178 163 221 185 221 168 125 113 102 61 43 7 220 117 126 110 122
257 250 247 273 288 302 318 335 341 342 338 335 336 335 357 308 256 350 343 346 19 172 126 46 356 258 180 204 144 189 212 177 151 81 71 87 70 107 41 53 78 80 74 74 73
237 236 236 256 279 299 314 325 339 337 335 331 335 336 3 243 286 347 337 348 19 348 121 106 46 306 299 227 176 206 173 160 126 135 110 104 88 75 41 67 76 85 80 73 67
236 224 221 236 266 290 312 317 327 328 327 324 331 344 307 246 331 324 317 291 287 343 107 113 96 0 288 247 333 171 141 142 58 156 132 141 51 56 89 81 81 81 78 77 68
233 215 201 225 255 280 301 307 319 318 317 315 331 11 259 273 307 311 303 317 336 214 140 148 121 249 282 298 356 195 118 157 32 3 107 182 185 82 106 108 90 80 85 81 70
221 204 193 209 243 280 303 306 312 309 306 315 20 85 274 315 360 308 291 249 307 319 208 141 141 168 272 188 326 294 177 158 159 10 161 49 151 167 132 127 108 100 93 89 81
203 185 180 194 224 300 310 304 296 339 339 21 291 358 313 309 299 310 278 262 202 307 146 162 149 141 103 172 216 195 157 135 148 14 46 73 103 104 120 142 130 119 99 85 64
181 171 167 175 175 346 2 6 10 358 31 232 242 258 263 291 278 298 311 111 146 68 168 204 176 200 196 200 222 272 151 122 50 33 77 74 119 140 135 132 134 137 119 104 80
157 155 160 151 135 78 64 76 113 168 318 319 264 275 268 265 301 307 327 163 179 200 171 161 217 144 113 131 197 264 209 123 108 39 81 133 102 123 128 117 158 145 140 127 114
141 147 146 136 106 49 67 69 2 81 309 303 274 286 289 325 269 282 323 191 193 204 223 154 198 154 137 158 181 216 217 164 141 101 73 148 87 183 76 119 129 124 126 124 111
133 136 136 128 59 102 46 339 1 91 66 308 336 342 331 323 285 258 285 293 266 193 183 223 258 151 180 195 187 201 248 168 139 119 159 351 211 209 177 182 191 170 159 140 112
124 123 123 91 144 97 351 337 105 56 36 293 313 272 300 315 298 254 286 279 260 198 169 240 177 163 179 216 166 210 156 210 157 142 139 197 291 155 153 202 203 197 170 151 143
115 115 115 57 52 15 330 29 54 45 266 335 323 349 352 193 292 309 21 202 232 276 320 206 299 196 191 183 203 150 118 182 190 173 220 173 179 213 200 195 188 167 180 163 154
107 87 63 65 129 340 21 35 41 115 315 313 334 347 331 282 320 50 292 186 183 193 202 157 264 278 173 138 158 237 152 187 209 195 189 159 181 249 179 201 189 176 170 166 163
97 78 47 54 349 9 54 49 79 228 237 251 286 293 280 317 244 275 277 238 237 136 170 177 208 176 218 203 164 212 173 160 190 181 202 162 224 242 291 340 150 153 154 153 152
94 22 41 336 357 57 73 58 198 201 264 314 334 300 313 308 255 279 232 209 215 166 198 184 250 300 174 224 149 172 230 147 109 27 99 189 295 274 355 114 141 149 150 163 160
83 62 345 319 11 60 75 227 182 221 312 338 301 227 282 282 328 237 216 220 205 181 174 203 311 302 210 100 360 192 154 126 29 150 171 217 269 234 217 173 162 164 167 167 159
63 53 270 346 59 47 131 213 233 270 262 252 255 279 254 294 263 272 261 295 223 199 180 114 179 295 140 206 185 145 174 127 111 102 153 153 247 196 205 184 180 180 177 165 157
98 38 317 27 50 10 137 144 330 274 297 275 260 270 296 305 277 272 305 345 292 272 149 155 204 204 221 302 279 286 166 153 169 206 360 74 265 147 244 176 172 172 156 151 149
102 210 345 82 131 320 286 190 262 226 233 220 287 216 245 274 286 263 305 355 63 24 142 146 205 132 339 353 336 218 214 133 101 82 183 178 243 360 163 145 157 145 147 149 150
95 25 326 52 278 125 168 270 300 250 266 277 277 355 318 277 237 296 313 33 28 32 123 67 212 180 210 200 122 170 157 158 121 151 158 219 252 210 170 160 159 161 160 160 162
43 235 191 272 317 92 129 143 7 308 267 238 246 175 269 287 297 336 339 342 42 27 42 40 174 229 218 179 318 168 172 159 185 156 187 205 207 213 191 185 173 158 152 157 164
130 138 37 121 208 91 269 234 184 286 200 274 222 253 348 225 286 302 350 22 33 326 15 26 335 20 297 349 69 23 194 194 176 174 172 213 247 73 128 125 163 170 166 172 176
172 56 109 224 130 100 229 193 205 163 223 254 240 268 282 242 226 259 241 259 258 320 316 346 133 186 253 4 11 315 217 201 185 181 150 181 208 156 169 185 184 181 177 173 175